Location: Saluda
(35.2377°N, 82.3468°W)
Time: 16:04:44
(UTC+00:00)

Transit 2A - Pass Details

Date: 06 October 2022
Orbit: 598 x 959 km, 66.7° (Epoch: 06 December)

Event Time Altitude Azimuth Distance (km) Brightness Sun altitude
Rises 03:49:39 0° 224° (SW) 2,946 - -53.7°
Reaches altitude 10° 03:52:07 10° 232° (SW) 2,000 - -54.0°
Maximum altitude 03:56:16 37° 301° (WNW) 941 - -54.5°
Drops below altitude 10° 04:00:18 10° 10° (N) 1,940 - -55.0°
Sets 04:02:39 0° 19° (NNE) 2,846 - -55.2°
